User: anonymous   Login
Location: Unspecified
(0.0000°N, 0.0000°E)
Time: 23:01:47
(UTC+00:00)
Language:

CORVUS BC4 - Orbit

View from above orbital plane
View from above orbital plane
View from above satellite
View from above satellite

Ground track
Ground track

The orbit is defined by the following mean orbital elements,

1 43767U          26145.09767971 +.00000000 +00000-0 +20315-3 0 00008
2 43767  97.4086 188.7558 0010078  83.8816 276.3563 15.12274382    02
Epoch (UTC): 25 May 2026 02:20:39
Eccentricity: 0.0010078
inclination: 97.4086°
perigee height: 522 km
apogee height: 536 km
right ascension of ascending node: 188.7558°
argument of perigee: 83.8816°
revolutions per day: 15.12274382
mean anomaly at epoch: 276.3563°

The dashed part of the orbit path shows where the satellite is in the earth's shadow,  

DLR